EST,Max TemperatureF,Mean TemperatureF,Min TemperatureF,Max Dew PointF,MeanDew PointF,Min DewpointF,Max Humidity, Mean Humidity, Min Humidity, Max Sea Level PressureIn, Mean Sea Level PressureIn, Min Sea Level PressureIn, Max VisibilityMiles, Mean VisibilityMiles, Min VisibilityMiles, Max Wind SpeedMPH, Mean Wind SpeedMPH, Max Gust SpeedMPH,PrecipitationIn, CloudCover, Events, WindDirDegrees
2013-1-1,75,62,50,58,55,49,96,77,50,30.22,30.12,30.04,10,10,8,15,4,21,0.00,3,,228
2013-1-2,75,67,59,65,61,55,94,82,62,30.09,30.03,29.99,10,8,5,15,7,18,0.00,5,,286
2013-1-3,63,57,51,61,56,48,96,91,81,30.25,30.15,30.07,10,7,2,15,8,,0.07,8,Rain,360
2013-1-4,60,54,48,54,51,45,96,88,77,30.34,30.28,30.23,10,9,4,14,9,,0.00,7,,340
2013-1-5,63,54,45,54,49,42,93,84,67,30.36,30.31,30.26,10,10,10,13,9,,0.00,2,,346
2013-1-6,66,60,55,59,56,54,100,90,77,30.25,30.18,30.12,10,10,5,13,7,,0.03,7,Rain,355
2013-1-7,64,58,51,57,52,46,94,82,70,30.30,30.24,30.19,10,10,10,18,9,23,0.00,4,,351
2013-1-8,71,66,62,65,62,57,97,90,78,30.29,30.25,30.20,10,8,3,14,6,,0.00,8,Rain,19
2013-1-9,71,66,62,68,64,61,100,95,83,30.36,30.30,30.24,10,6,0,13,6,,0.00,8,Fog-Rain,17
2013-1-10,75,68,62,68,65,63,100,93,73,30.37,30.34,30.30,10,6,0,10,5,31,0.00,5,Fog-Rain,72
2013-1-11,79,68,57,67,63,57,97,88,52,30.29,30.24,30.19,10,8,2,14,4,,0.00,1,,153
2013-1-12,77,67,57,67,61,57,100,92,66,30.23,30.19,30.13,10,5,0,12,2,,0.00,4,Fog,139
2013-1-13,77,67,57,65,62,56,97,85,62,30.20,30.14,30.11,10,10,10,12,4,,0.00,0,,172
2013-1-14,78,68,59,65,62,57,96,82,56,30.22,30.18,30.14,10,10,9,14,4,,0.00,1,,169
2013-1-15,78,70,62,66,64,60,97,80,61,30.18,30.12,30.08,10,8,1,15,7,20,0.00,4,,159
2013-1-16,80,72,64,65,63,58,96,78,47,30.12,30.06,30.01,10,10,10,12,6,18,0.00,3,,206
2013-1-17,77,62,44,64,54,33,93,76,59,30.16,30.00,29.92,10,8,2,23,10,32,0.00,4,Rain,240
2013-1-18,61,52,42,51,44,33,77,70,62,30.38,30.31,30.18,10,10,7,28,16,34,0.00,6,Rain,2
2013-1-19,62,58,55,56,54,50,97,86,75,30.37,30.29,30.21,10,8,3,20,15,28,0.00,6,Rain,354
2013-1-20,66,60,52,55,53,49,100,82,52,30.23,30.17,30.11,10,10,8,12,7,,0.00,4,,360
2013-1-21,66,58,51,54,49,44,92,73,50,30.14,30.09,30.05,10,10,10,8,3,,0.00,2,,358
2013-1-22,61,54,48,43,36,28,68,53,29,30.31,30.23,30.11,10,10,10,15,7,,0.00,0,,333
2013-1-23,59,49,39,41,36,29,77,59,44,30.43,30.34,30.31,10,10,10,12,7,20,0.00,0,,309
2013-1-24,71,58,46,51,46,40,83,65,41,30.32,30.27,30.22,10,10,7,15,8,21,0.00,1,,272
2013-1-25,71,63,55,58,52,46,93,73,41,30.34,30.26,30.19,10,10,7,12,7,,0.00,2,,356
2013-1-26,73,62,51,58,54,46,96,74,53,30.27,30.22,30.18,10,10,6,15,6,18,0.00,1,,253
2013-1-27,69,63,57,61,59,55,96,88,73,30.38,30.31,30.24,10,10,7,13,7,,0.11,5,Rain,349
2013-1-28,75,68,60,64,62,58,96,84,64,30.39,30.33,30.28,10,10,7,13,5,,0.00,5,Rain,128
2013-1-29,75,69,63,67,65,61,93,85,69,30.28,30.20,30.13,10,10,9,17,9,23,0.00,1,,157
2013-1-30,82,74,66,66,63,60,94,70,46,30.12,29.97,29.84,10,10,10,22,12,28,0.00,3,,188
2013-1-31,64,55,44,61,41,22,94,63,25,30.27,30.07,29.90,10,9,4,24,13,32,0.05,3,Rain,284